Location: Cahoon Acres
(40.8736°N, 111.8994°W)
Time: 07:49:37
(UTC+00:00)

Transit 2A - Visible Passes

Search period start: 26 May 2020 00:00
Search period end: 05 June 2020 00:00
Orbit: 594 x 965 km, 66.7° (Epoch: 25 May)

Date Brightness Start Highest point End Pass type
(mag) Time Alt. Az. Time Alt. Az. Time Alt. Az.
26 May 8.4 05:06:28 10° N 05:10:40 19° NE 05:14:58 10° E visible
26 May 6.3 06:48:33 10° NNW 06:54:48 83° ENE 06:55:32 71° SE visible
26 May 8.3 08:33:31 10° WNW 08:36:00 16° W 08:36:00 16° W visible
27 May 8.6 04:32:52 10° N 04:36:08 14° NE 04:39:28 10° ENE visible
27 May 6.7 06:14:27 10° NNW 06:20:36 61° ENE 06:22:04 49° ESE visible
27 May 7.9 07:58:33 10° NW 08:02:32 24° W 08:02:32 24° W visible
28 May 8.7 03:59:44 10° NNE 04:01:31 11° NNE 04:03:21 10° NE visible
28 May 7.1 05:40:25 10° NNW 05:46:21 45° NE 05:48:40 32° E visible
28 May 7.3 07:23:55 10° NW 07:29:08 34° WSW 07:29:08 34° WSW visible
29 May 7.6 05:06:28 10° NNW 05:12:02 34° NE 05:15:18 21° E visible
29 May 6.8 06:49:29 10° NW 06:55:29 48° WSW 06:55:46 48° WSW visible
30 May 7.9 04:32:35 10° N 04:37:39 26° NE 04:41:58 13° E visible
30 May 6.4 06:15:11 10° NW 06:21:24 68° WSW 06:22:27 58° SSW visible
31 May 8.2 03:58:47 10° N 04:03:12 20° NE 04:07:43 10° E visible
31 May 6.4 05:41:00 10° NNW 05:47:17 88° ENE 05:49:10 49° SSE visible
31 May 8.3 07:26:14 10° WNW 07:29:39 16° W 07:29:39 16° W visible
01 Jun 8.5 03:25:09 10° N 03:28:41 15° NE 03:32:17 10° ENE visible
01 Jun 6.6 05:06:53 10° NNW 05:13:06 65° ENE 05:15:56 34° SE visible
01 Jun 7.9 06:51:08 10° WNW 06:55:53 23° WSW 06:56:25 22° WSW visible
02 Jun 7.0 04:32:50 10° NNW 04:38:51 48° NE 04:42:44 22° ESE visible
02 Jun 7.5 06:16:27 10° NW 06:21:56 32° WSW 06:23:13 30° SW visible
03 Jun 7.4 03:58:51 10° NNW 04:04:33 36° NE 04:09:34 13° ESE visible
03 Jun 7.1 05:41:59 10° NW 05:47:56 45° WSW 05:50:04 34° SSW visible
04 Jun 7.8 03:24:57 10° N 03:30:10 27° NE 03:35:31 10° ESE visible
04 Jun 6.7 05:07:39 10° NW 05:13:53 63° WSW 05:16:57 31° S visible
